| time (UTC) | temp C | wind direction | speed KPH | gust KPH | rain 1hr cm | rain 24hr cm | rain mn cm | humidity % | barometer mb |
| 20260903042530 | 26 | 266 | 0.0 | 0.0 | 0.00 | 0.00 | 0.00 | 86 | 1013.9 |
| 20260903041021 | 26 | 268 | 0.0 | 1.6 | 0.00 | 0.00 | 0.00 | 85 | 1013.8 |
| 20260903035510 | 27 | 285 | 0.0 | 0.0 | 0.00 | 0.00 | 0.00 | 83 | 1013.6 |
| 20260903034002 | 27 | 272 | 0.0 | 0.0 | 0.00 | 0.00 | 0.00 | 83 | 1013.4 |
| 20260903032500 | 27 | 272 | 0.0 | 0.0 | 0.00 | 0.00 | 0.00 | 82 | 1013.1 |
| 20260903030951 | 28 | 270 | 0.0 | 0.0 | 0.00 | 0.00 | 0.00 | 80 | 1013.0 |
| 20260903025440 | 28 | 283 | 0.0 | 1.6 | 0.00 | 0.00 | 0.00 | 80 | 1013.0 |
| 20260903023931 | 28 | 276 | 0.0 | 0.0 | 0.00 | 0.00 | 0.00 | 79 | 1013.3 |
| 20260903022420 | 28 | 278 | 1.6 | 3.2 | 0.00 | 0.00 | 0.00 | 79 | 1013.6 |
| 20260903020930 | 28 | 278 | 0.0 | 0.0 | 0.00 | 0.00 | 0.00 | 78 | 1013.7 |
| 20260903015401 | 28 | 281 | 1.6 | 3.2 | 0.00 | 0.00 | 0.00 | 78 | 1013.4 |
| 20260903013850 | 28 | 273 | 0.0 | 0.0 | 0.00 | 0.00 | 0.00 | 77 | 1013.3 |
| 20260903012400 | 29 | 282 | 0.0 | 0.0 | 0.00 | 0.00 | 0.00 | 76 | 1013.4 |
| 20260903010830 | 29 | 276 | 0.0 | 0.0 | 0.00 | 0.00 | 0.00 | 75 | 1013.2 |
| 20260903005320 | 30 | 270 | 0.0 | 0.0 | 0.00 | 0.00 | 0.00 | 74 | 1013.0 |
| 20260903003810 | 30 | 273 | 0.0 | 1.6 | 0.00 | 0.00 | 0.00 | 72 | 1013.2 |
| 20260903002301 | 30 | 270 | 0.0 | 0.0 | 0.00 | 0.00 | 0.00 | 72 | 1013.2 |
| 20260903000750 | 30 | 267 | 0.0 | 1.6 | 0.00 | 0.00 | 0.00 | 71 | 1013.3 |
| 20260902235305 | 31 | 281 | 0.0 | 0.0 | 0.00 | 0.00 | 0.00 | 69 | 1013.3 |
| 20260902233740 | 31 | 273 | 0.0 | 0.0 | 0.00 | 0.00 | 0.00 | 67 | 1013.3 |
| 20260902232231 | 31 | 278 | 1.6 | 3.2 | 0.00 | 0.00 | 0.00 | 65 | 1013.2 |
| 20260902230720 | 32 | 274 | 1.6 | 3.2 | 0.00 | 0.00 | 0.00 | 64 | 1013.2 |
| 20260902225211 | 32 | 272 | 0.0 | 0.0 | 0.00 | 0.00 | 0.00 | 62 | 1013.1 |
| 20260902223700 | 32 | 275 | 0.0 | 0.0 | 0.00 | 0.00 | 0.00 | 62 | 1013.3 |
| 20260902222151 | 33 | 253 | 0.0 | 1.6 | 0.00 | 0.00 | 0.00 | 61 | 1013.1 |
| 20260902220700 | 33 | 272 | 3.2 | 4.8 | 0.00 | 0.00 | 0.00 | 59 | 1013.3 |
| 20260902215131 | 34 | 250 | 1.6 | 1.6 | 0.00 | 0.00 | 0.00 | 58 | 1013.3 |
| 20260902213620 | 34 | 278 | 1.6 | 4.8 | 0.00 | 0.00 | 0.00 | 55 | 1013.4 |
| 20260902212130 | 34 | 268 | 3.2 | 4.8 | 0.00 | 0.00 | 0.00 | 54 | 1013.6 |
| 20260902210600 | 34 | 274 | 0.0 | 1.6 | 0.00 | 0.00 | 0.00 | 56 | 1013.5 |
| 20260902205050 | 35 | 279 | 0.0 | 1.6 | 0.00 | 0.00 | 0.00 | 57 | 1013.7 |
| 20260902203540 | 35 | 284 | 1.6 | 3.2 | 0.00 | 0.00 | 0.00 | 56 | 1013.8 |
| 20260902202051 | 34 | 281 | 1.6 | 3.2 | 0.00 | 0.00 | 0.00 | 56 | 1013.8 |
| 20260902200551 | 34 | 267 | 0.0 | 0.0 | 0.00 | 0.00 | 0.00 | 57 | 1014.2 |
| 20260902195020 | 35 | 267 | 1.6 | 3.2 | 0.00 | 0.00 | 0.00 | 53 | 1014.1 |
| 20260902193511 | 36 | 272 | 0.0 | 0.0 | 0.00 | 0.00 | 0.00 | 54 | 1014.6 |
| 20260902192003 | 35 | 280 | 1.6 | 1.6 | 0.00 | 0.00 | 0.00 | 54 | 1014.7 |
| 20260902190501 | 36 | 278 | 0.0 | 0.0 | 0.00 | 0.00 | 0.00 | 58 | 1014.8 |
| 20260902184950 | 36 | 328 | 1.6 | 4.8 | 0.00 | 0.00 | 0.00 | 54 | 1014.8 |
| 20260902183501 | 35 | 282 | 0.0 | 1.6 | 0.00 | 0.00 | 0.00 | 55 | 1015.1 |
| 20260902181931 | 35 | 278 | 0.0 | 0.0 | 0.00 | 0.00 | 0.00 | 55 | 1015.0 |
| 20260902180420 | 35 | 274 | 3.2 | 4.8 | 0.00 | 0.00 | 0.00 | 56 | 1015.1 |
| 20260902174911 | 34 | 278 | 0.0 | 0.0 | 0.00 | 0.00 | 0.00 | 61 | 1015.4 |
| 20260902173401 | 34 | 275 | 0.0 | 1.6 | 0.00 | 0.00 | 0.00 | 58 | 1015.6 |
| 20260902171850 | 34 | 283 | 0.0 | 0.0 | 0.00 | 0.00 | 0.00 | 61 | 1015.6 |
| 20260902170341 | 35 | 280 | 0.0 | 0.0 | 0.00 | 0.00 | 0.00 | 58 | 1015.8 |
| 20260902164831 | 34 | 271 | 0.0 | 1.6 | 0.00 | 0.00 | 0.00 | 62 | 1016.1 |
| 20260902163320 | 33 | 279 | 0.0 | 1.6 | 0.00 | 0.00 | 0.00 | 63 | 1016.2 |
| 20260902161811 | 33 | 275 | 0.0 | 0.0 | 0.00 | 0.00 | 0.00 | 64 | 1016.2 |
| 20260902160300 | 33 | 283 | 0.0 | 1.6 | 0.00 | 0.00 | 0.00 | 65 | 1016.3 |
| 20260902154811 | 33 | 283 | 0.0 | 1.6 | 0.00 | 0.00 | 0.00 | 63 | 1016.3 |
| 20260902153241 | 32 | 276 | 0.0 | 1.6 | 0.00 | 0.00 | 0.00 | 66 | 1016.2 |
| 20260902151730 | 32 | 275 | 1.6 | 4.8 | 0.00 | 0.00 | 0.00 | 65 | 1016.1 |
| 20260902150220 | 32 | 273 | 0.0 | 0.0 | 0.00 | 0.00 | 0.00 | 67 | 1016.0 |
| 20260902144711 | 32 | 273 | 1.6 | 3.2 | 0.00 | 0.00 | 0.00 | 64 | 1015.9 |
| 20260902143201 | 32 | 269 | 0.0 | 0.0 | 0.00 | 0.00 | 0.00 | 69 | 1016.0 |
| 20260902141710 | 31 | 278 | 0.0 | 0.0 | 0.00 | 0.00 | 0.00 | 71 | 1015.8 |
| 20260902140141 | 30 | 276 | 0.0 | 0.0 | 0.00 | 0.00 | 0.00 | 74 | 1015.8 |
| 20260902134630 | 30 | 278 | 0.0 | 0.0 | 0.00 | 0.00 | 0.00 | 75 | 1015.7 |
| 20260902133141 | 29 | 276 | 0.0 | 0.0 | 0.00 | 0.00 | 0.00 | 77 | 1015.8 |
| 20260902131610 | 28 | 248 | 0.0 | 0.0 | 0.00 | 0.00 | 0.00 | 82 | 1015.7 |
| 20260902124550 | 25 | 273 | 0.0 | 0.0 | 0.00 | 0.00 | 0.00 | 97 | 1015.7 |
| 20260902123101 | 23 | 279 | 0.0 | 0.0 | 0.00 | 0.00 | 0.00 | 99 | 1016.0 |
| 20260902121531 | 23 | 283 | 0.0 | 0.0 | 0.00 | 0.00 | 0.00 | 99 | 1015.8 |
| 20260902120021 | 23 | 228 | 0.0 | 0.0 | 0.00 | 0.00 | 0.00 | 99 | 1015.7 |
| 20260902114510 | 23 | 264 | 0.0 | 0.0 | 0.00 | 0.00 | 0.00 | 99 | 1015.6 |
| 20260902113002 | 23 | 266 | 0.0 | 0.0 | 0.00 | 0.00 | 0.00 | 99 | 1015.6 |
| 20260902111502 | 22 | 272 | 0.0 | 0.0 | 0.00 | 0.00 | 0.00 | 99 | 1015.5 |
| 20260902110000 | 23 | 272 | 0.0 | 0.0 | 0.00 | 0.00 | 0.00 | 99 | 1015.7 |
| 20260902104450 | 22 | 272 | 0.0 | 0.0 | 0.00 | 0.00 | 0.00 | 99 | 1015.7 |
| 20260902103000 | 23 | 272 | 0.0 | 0.0 | 0.00 | 0.00 | 0.00 | 99 | 1015.6 |
| 20260902101431 | 23 | 272 | 0.0 | 0.0 | 0.00 | 0.00 | 0.00 | 99 | 1015.4 |
| 20260902095921 | 23 | 263 | 0.0 | 0.0 | 0.00 | 0.00 | 0.00 | 99 | 1015.5 |
| 20260902094431 | 23 | 263 | 0.0 | 0.0 | 0.00 | 0.00 | 0.00 | 99 | 1015.3 |
| 20260902092900 | 23 | 264 | 0.0 | 0.0 | 0.00 | 0.00 | 0.00 | 99 | 1015.5 |
| 20260902091351 | 23 | 264 | 0.0 | 0.0 | 0.00 | 0.00 | 0.00 | 99 | 1015.5 |
| 20260902085840 | 22 | 265 | 0.0 | 0.0 | 0.00 | 0.00 | 0.00 | 99 | 1015.3 |
| 20260902084331 | 22 | 265 | 0.0 | 0.0 | 0.00 | 0.00 | 0.00 | 98 | 1015.4 |
| 20260902082820 | 22 | 265 | 0.0 | 0.0 | 0.00 | 0.00 | 0.00 | 98 | 1015.3 |
| 20260902081310 | 22 | 265 | 0.0 | 0.0 | 0.00 | 0.00 | 0.00 | 98 | 1015.2 |
| 20260902075801 | 22 | 265 | 0.0 | 0.0 | 0.00 | 0.00 | 0.00 | 98 | 1015.1 |
| 20260902074311 | 22 | 265 | 0.0 | 0.0 | 0.00 | 0.00 | 0.00 | 98 | 1015.0 |
| 20260902072741 | 22 | 264 | 0.0 | 0.0 | 0.00 | 0.00 | 0.00 | 98 | 1015.0 |
| 20260902071231 | 22 | 265 | 0.0 | 0.0 | 0.00 | 0.00 | 0.00 | 98 | 1014.8 |
| 20260902065720 | 22 | 265 | 0.0 | 0.0 | 0.00 | 0.00 | 0.00 | 98 | 1014.7 |
| 20260902064210 | 22 | 265 | 0.0 | 0.0 | 0.00 | 0.00 | 0.00 | 98 | 1014.6 |
| 20260902062704 | 22 | 265 | 0.0 | 0.0 | 0.00 | 0.00 | 0.00 | 98 | 1015.0 |
| 20260902061220 | 22 | 265 | 0.0 | 0.0 | 0.00 | 0.00 | 0.00 | 97 | 1015.0 |
| 20260902055650 | 22 | 265 | 0.0 | 0.0 | 0.00 | 0.00 | 0.00 | 97 | 1015.2 |
| 20260902054140 | 22 | 265 | 0.0 | 0.0 | 0.00 | 0.00 | 0.00 | 97 | 1015.2 |
| 20260902052630 | 22 | 265 | 0.0 | 0.0 | 0.00 | 0.00 | 0.00 | 97 | 1015.2 |
| 20260902051121 | 22 | 265 | 0.0 | 0.0 | 0.00 | 0.00 | 0.00 | 97 | 1015.4 |
| 20260902045611 | 22 | 265 | 0.0 | 0.0 | 0.00 | 0.00 | 0.00 | 96 | 1015.3 |
| 20260902044100 | 22 | 265 | 0.0 | 0.0 | 0.00 | 0.00 | 0.00 | 96 | 1015.3 |